Location: Newark
(58.8333°N, 23.5833°E)
Time: 18:06:38
(UTC+00:00)

Tiros 1 despin weight - Pass Details

Date: 17 November 2019
Orbit: 594 x 642 km, 48.2° (Epoch: 13 December)

Event Time Altitude Azimuth Distance (km) Brightness Sun altitude
Rises 15:26:15 0° 248° (WSW) 2,841 ? -10.6°
Reaches altitude 10° 15:28:58 10° 233° (SW) 1,945 ? -11.0°
Maximum altitude 15:32:18 21° 184° (S) 1,378 ? -11.4°
Drops below altitude 10° 15:35:40 10° 136° (SE) 1,965 ? -11.8°
Enters shadow 15:37:17 - 125° (SE) 2,487 ? -12.0°
Sets 15:38:25 0° 120° (ESE) 2,879 - -12.1°
